Weather History for Colby, KS

Change the Weather History Date:

Monday, September 30, 2013

  Actual Average (KGLD) Record (KGLD)
Temperature  
Mean Temperature 62 °F 58 °F  
Max Temperature 82 °F 73 °F 94 °F (1942)
Min Temperature 42 °F 44 °F 19 °F (1985)
Degree Days  
Heating Degree Days 3 8  
Month to date heating degree days 112  
Since 1 July heating degree days 124  
Cooling Degree Days 0 1  
Month to date cooling degree days 100  
Year to date cooling degree days 933  
Growing Degree Days 12 (Base 50)    
Moisture  
Dew Point 49 °F    
Average Humidity 65    
Maximum Humidity 100    
Minimum Humidity 26    
Precipitation  
Precipitation 0.00 in 0.04 in 1.50 in (1982)
Month to date precipitation 1.22  
Year to date precipitation 17.12  
Snow  
Snow 0.00 in 0.00 in - ()
Month to date snowfall 0.4  
Since 1 July snowfall 0.4  
Since 1 September snowfall 0.4  
Snow Depth -    
Sea Level Pressure  
Sea Level Pressure 29.83 in    
Wind  
Wind Speed 8 mph (South)    
Max Wind Speed 20 mph    
Max Gust Speed 21 mph    
Visibility 10 miles    
Events      
T = Trace of Precipitation, MM = Missing Value Source: NWS Daily Summary

Daily Weather History Graph

Daily Weather History Graph

Search for Another Location

Airport:

Trip Planner

Search our weather history database for the weather conditions in past years. The results will help you decide how hot, cold, wet, or windy it might be!

Date:

Astronomy

Sep. 30, 2013 Rise Set
Actual Time 7:39 AM CDT 7:27 PM CDT
Civil Twilight 7:12 AM CDT 7:54 PM CDT
Nautical Twilight 6:41 AM CDT 8:25 PM CDT
Astronomical Twilight 6:10 AM CDT 8:57 PM CDT
Moon 3:19 AM CDT (9/30) 4:58 PM CDT (9/30)
Length of Visible Light 12h 41m
Length of Day
11h 48m
Waning Crescent, 19% of the Moon is Illuminated
Sep 30
Waning Crescent
Oct 4
New
Oct 11
First Quarter
Oct 18
Full
Oct 26
Last Quarter

Hourly Weather History & Observations

Time (CDT) Temp. Windchill Dew Point Humidity Pressure Visibility Wind Dir Wind Speed Gust Speed Precip Events Conditions
12:15 AM 55.4 °F - 46.4 °F 72% 29.90 in 10.0 mi South 8.1 mph - N/A   Clear
12:35 AM 55.4 °F - 46.4 °F 72% 29.90 in 10.0 mi South 5.8 mph - N/A   Clear
12:55 AM 53.6 °F - 46.4 °F 77% 29.90 in 10.0 mi South 3.5 mph - N/A   Clear
1:15 AM 51.8 °F - 46.4 °F 82% 29.90 in 10.0 mi South 4.6 mph - N/A   Clear
1:35 AM 51.8 °F - 46.4 °F 82% 29.88 in 10.0 mi SSE 6.9 mph - N/A   Clear
1:55 AM 51.8 °F - 46.4 °F 82% 29.88 in 10.0 mi South 5.8 mph - N/A   Clear
2:15 AM 51.8 °F - 46.4 °F 82% 29.88 in 10.0 mi South 5.8 mph - N/A   Clear
2:35 AM 50.0 °F - 44.6 °F 82% 29.88 in 10.0 mi SSW 5.8 mph - N/A   Clear
2:55 AM 48.2 °F - 44.6 °F 87% 29.89 in 10.0 mi SSW 5.8 mph - N/A   Clear
3:15 AM 48.2 °F - 46.4 °F 93% 29.88 in 10.0 mi SSW 6.9 mph - N/A   Clear
3:35 AM 48.2 °F - 44.6 °F 87% 29.87 in 10.0 mi SSW 5.8 mph - N/A   Clear
3:55 AM 46.4 °F 43.5 °F 44.6 °F 93% 29.86 in 10.0 mi SSW 5.8 mph - N/A   Clear
4:15 AM 46.4 °F 42.9 °F 44.6 °F 93% 29.86 in 10.0 mi SSW 6.9 mph - N/A   Clear
4:35 AM 46.4 °F 43.5 °F 44.6 °F 93% 29.86 in 10.0 mi SSW 5.8 mph - N/A   Clear
4:55 AM 44.6 °F 40.2 °F 42.8 °F 93% 29.86 in 10.0 mi SW 8.1 mph - N/A   Clear
5:15 AM 44.6 °F 39.7 °F 42.8 °F 93% 29.86 in 10.0 mi WSW 9.2 mph - N/A   Clear
5:35 AM 44.6 °F 39.7 °F 44.6 °F 100% 29.86 in 10.0 mi WSW 9.2 mph - N/A   Clear
5:55 AM 44.6 °F 40.2 °F 44.6 °F 100% 29.85 in 10.0 mi WSW 8.1 mph - N/A   Clear
6:15 AM 44.6 °F 39.2 °F 44.6 °F 100% 29.86 in 10.0 mi West 10.4 mph - N/A   Clear
6:35 AM 44.6 °F 39.7 °F 44.6 °F 100% 29.86 in 10.0 mi West 9.2 mph - N/A   Clear
6:55 AM 44.6 °F 40.2 °F 44.6 °F 100% 29.86 in 10.0 mi WNW 8.1 mph - N/A   Clear
7:15 AM 44.6 °F 43.1 °F 44.6 °F 100% 29.86 in 10.0 mi WSW 3.5 mph - N/A   Clear
7:35 AM 42.8 °F 41.1 °F 42.8 °F 100% 29.86 in 10.0 mi WSW 3.5 mph - N/A   Clear
7:55 AM 42.8 °F 40.1 °F 42.8 °F 100% 29.86 in 10.0 mi West 4.6 mph - N/A   Clear
8:15 AM 44.6 °F 43.1 °F 44.6 °F 100% 29.86 in 10.0 mi WSW 3.5 mph - N/A   Clear
8:35 AM 46.4 °F - 46.4 °F 100% 29.86 in 10.0 mi Calm Calm - N/A   Clear
8:55 AM 50.0 °F - 48.2 °F 94% 29.86 in 10.0 mi West 3.5 mph - N/A   Clear
9:15 AM 53.6 °F - 51.8 °F 94% 29.86 in 10.0 mi Calm Calm - N/A   Clear
9:35 AM 55.4 °F - 51.8 °F 88% 29.86 in 10.0 mi Calm Calm - N/A   Clear
9:55 AM 59.0 °F - 51.8 °F 77% 29.86 in 10.0 mi SSE 4.6 mph - N/A   Clear
10:15 AM 62.6 °F - 51.8 °F 68% 29.85 in 10.0 mi SSE 4.6 mph - N/A   Clear
10:35 AM 66.2 °F - 51.8 °F 60% 29.85 in 10.0 mi SSE 3.5 mph - N/A   Clear
10:55 AM 69.8 °F - 53.6 °F 56% 29.85 in 10.0 mi South 3.5 mph - N/A   Clear
11:15 AM 71.6 °F - 53.6 °F 53% 29.86 in 10.0 mi SE 3.5 mph - N/A   Clear
11:35 AM 75.2 °F - 50.0 °F 41% 29.85 in 10.0 mi SSE 8.1 mph - N/A   Clear
11:55 AM 77.0 °F - 50.0 °F 39% 29.85 in 10.0 mi SSE 9.2 mph - N/A   Clear
12:15 PM 77.0 °F - 50.0 °F 39% 29.85 in 10.0 mi SSE 9.2 mph - N/A   Clear
12:35 PM 78.8 °F - 48.2 °F 34% 29.85 in 10.0 mi SSE 9.2 mph - N/A   Clear
12:55 PM 78.8 °F - 46.4 °F 32% 29.85 in 10.0 mi SSE 10.4 mph - N/A   Clear
1:15 PM 80.6 °F - 46.4 °F 30% 29.84 in 10.0 mi SE 11.5 mph - N/A   Clear
1:35 PM 80.6 °F - 46.4 °F 30% 29.84 in 10.0 mi SSE 10.4 mph - N/A   Clear
1:55 PM 80.6 °F - 44.6 °F 28% 29.82 in 10.0 mi SSE 12.7 mph 17.3 mph N/A   Clear
2:15 PM 82.4 °F - 44.6 °F 26% 29.81 in 10.0 mi SSE 13.8 mph - N/A   Clear
2:35 PM 80.6 °F - 46.4 °F 30% 29.81 in 10.0 mi SSE 13.8 mph - N/A   Clear
2:55 PM 82.4 °F - 46.4 °F 28% 29.80 in 10.0 mi SSE 12.7 mph - N/A   Clear
3:15 PM 82.4 °F - 48.2 °F 30% 29.80 in 10.0 mi SE 15.0 mph 18.4 mph N/A   Clear
3:35 PM 82.4 °F - 48.2 °F 30% 29.79 in 10.0 mi SE 12.7 mph 19.6 mph N/A   Clear
3:55 PM 82.4 °F - 48.2 °F 30% 29.79 in 10.0 mi SSE 13.8 mph 19.6 mph N/A   Clear
4:15 PM 80.6 °F - 50.0 °F 34% 29.79 in 10.0 mi SE 13.8 mph 19.6 mph N/A   Clear
4:35 PM 80.6 °F - 50.0 °F 34% 29.79 in 10.0 mi SSE 15.0 mph 18.4 mph N/A   Clear
4:55 PM 80.6 °F - 50.0 °F 34% 29.78 in 10.0 mi SSE 16.1 mph 20.7 mph N/A   Clear
5:15 PM 80.6 °F - 51.8 °F 37% 29.78 in 10.0 mi SSE 17.3 mph - N/A   Clear
5:35 PM 78.8 °F - 51.8 °F 39% 29.78 in 10.0 mi SE 16.1 mph 20.7 mph N/A   Clear
5:55 PM 78.8 °F - 51.8 °F 39% 29.77 in 10.0 mi SE 19.6 mph - N/A   Clear
6:15 PM 77.0 °F - 51.8 °F 41% 29.77 in 10.0 mi SSE 17.3 mph - N/A   Clear
6:35 PM 77.0 °F - 53.6 °F 44% 29.77 in 10.0 mi SSE 13.8 mph - N/A   Clear
6:55 PM 75.2 °F - 53.6 °F 47% 29.77 in 10.0 mi SE 12.7 mph - N/A   Clear
7:15 PM 71.6 °F - 53.6 °F 53% 29.77 in 10.0 mi SE 10.4 mph - N/A   Clear
7:35 PM 69.8 °F - 53.6 °F 56% 29.77 in 10.0 mi SE 10.4 mph - N/A   Clear
7:55 PM 68.0 °F - 53.6 °F 60% 29.78 in 10.0 mi SE 9.2 mph - N/A   Clear
8:15 PM 66.2 °F - 53.6 °F 64% 29.79 in 10.0 mi SE 8.1 mph - N/A   Clear
8:35 PM 64.4 °F - 53.6 °F 68% 29.79 in 10.0 mi SE 9.2 mph - N/A   Clear
8:55 PM 64.4 °F - 53.6 °F 68% 29.79 in 10.0 mi SE 9.2 mph - N/A   Clear
9:15 PM 64.4 °F - 53.6 °F 68% 29.79 in 10.0 mi SSE 10.4 mph - N/A   Clear
9:35 PM 62.6 °F - 53.6 °F 72% 29.80 in 10.0 mi SSE 10.4 mph - N/A   Clear
9:55 PM 64.4 °F - 51.8 °F 64% 29.80 in 10.0 mi SSE 10.4 mph - N/A   Clear
10:15 PM 64.4 °F - 51.8 °F 64% 29.81 in 10.0 mi South 11.5 mph - N/A   Clear
10:35 PM 66.2 °F - 51.8 °F 60% 29.81 in 10.0 mi South 15.0 mph 19.6 mph N/A   Clear
10:55 PM 68.0 °F - 51.8 °F 56% 29.81 in 10.0 mi South 13.8 mph 19.6 mph N/A   Clear
11:15 PM 68.0 °F - 51.8 °F 56% 29.81 in 10.0 mi South 12.7 mph 19.6 mph N/A   Clear
11:35 PM 64.4 °F - 51.8 °F 64% 29.82 in 10.0 mi South 11.5 mph 19.6 mph N/A   Clear
11:55 PM 62.6 °F - 51.8 °F 68% 29.82 in 10.0 mi SSW 9.2 mph - N/A   Clear